Needles, CA

4:51 PM PDT on March 27, 2017 (GMT -0700)
Needles

Weather History for KEED - November, 2013

Change the Weather History Date:

Wednesday, November 20, 2013

  Actual Average Record
Temperature  
Mean Temperature 65 °F 60 °F  
Max Temperature 75 °F 71 °F 84 °F (1950)
Min Temperature 55 °F 48 °F 30 °F (1921)
Degree Days  
Heating Degree Days 0    
Cooling Degree Days 0    
Growing Degree Days 15 (Base 50)    
Moisture  
Dew Point 42 °F    
Average Humidity 45    
Maximum Humidity 72    
Minimum Humidity 26    
Precipitation  
Precipitation 0.01 in 0.02 in 0.45 in (1902)
Month to date precipitation 0.26  
Year to date precipitation 3.97  
Sea Level Pressure  
Sea Level Pressure 29.77 in    
Wind  
Wind Speed 4 mph (South)    
Max Wind Speed 10 mph    
Max Gust Speed -    
Visibility 10 miles    
Events Rain    
T = Trace of Precipitation, MM = Missing Value Source: NWS Daily Summary

Daily Weather History Graph

Daily Weather History Graph

Search for Another Location

Airport or City:

Trip Planner

Search our weather history database for the weather conditions in past years. The results will help you decide how hot, cold, wet, or windy it might be!

Date:

Astronomy

Nov. 20, 2013 Rise Set
Actual Time 6:17 AM PST 4:30 PM PST
Civil Twilight 5:50 AM PST 4:57 PM PST
Nautical Twilight 5:19 AM PST 5:28 PM PST
Astronomical Twilight 4:49 AM PST 5:58 PM PST
Moon 7:16 PM PST (11/20) 8:45 AM PST (11/20)
Length of Visible Light 11h 07m
Length of Day
10h 12m
Waning Gibbous, 91% of the Moon is Illuminated
Nov 20
Waning Gibbous
Nov 25
Last Quarter
Dec 2
New
Dec 9
First Quarter
Dec 17
Full

Hourly Weather History & Observations

Time (PST) Temp. Dew Point Humidity Pressure Visibility Wind Dir Wind Speed Gust Speed Precip Events Conditions
12:56 AM 61.0 °F 42.1 °F 50% 29.80 in 10.0 mi South 4.6 mph - N/A   Clear
1:56 AM 61.0 °F 42.1 °F 50% 29.79 in 10.0 mi Calm Calm - N/A   Clear
2:56 AM 57.9 °F 42.1 °F 56% 29.78 in 10.0 mi Calm Calm - N/A   Clear
3:56 AM 57.0 °F 41.0 °F 55% 29.78 in 10.0 mi NNW 4.6 mph - N/A   Clear
4:56 AM 55.0 °F 41.0 °F 59% 29.79 in 10.0 mi Calm Calm - N/A   Clear
5:56 AM 55.0 °F 39.9 °F 57% 29.80 in 10.0 mi SSW 4.6 mph - N/A   Clear
6:56 AM 57.9 °F 42.1 °F 56% 29.81 in 10.0 mi Calm Calm - N/A   Scattered Clouds
7:56 AM 59.0 °F 42.1 °F 53% 29.83 in 10.0 mi Calm Calm - N/A   Overcast
8:56 AM 57.9 °F 48.9 °F 72% 29.84 in 10.0 mi South 3.5 mph - 0.00 in Rain Light Rain
9:56 AM 63.0 °F 46.0 °F 54% 29.83 in 10.0 mi Calm Calm - 0.01 in   Mostly Cloudy
10:56 AM 66.0 °F 45.0 °F 47% 29.81 in 10.0 mi East 4.6 mph - N/A   Clear
11:56 AM 69.1 °F 45.0 °F 42% 29.76 in 10.0 mi SE 6.9 mph - N/A   Clear
12:56 PM 72.0 °F 44.1 °F 37% 29.73 in 10.0 mi East 5.8 mph - N/A   Clear
1:56 PM 73.9 °F 43.0 °F 33% 29.71 in 10.0 mi SE 10.4 mph - N/A   Clear
2:56 PM 75.0 °F 37.9 °F 26% 29.71 in 10.0 mi SSW 10.4 mph - N/A   Clear
3:56 PM 73.9 °F 39.0 °F 28% 29.72 in 10.0 mi SSW 8.1 mph - N/A   Clear
4:56 PM 70.0 °F 41.0 °F 35% 29.73 in 10.0 mi South 4.6 mph - N/A   Mostly Cloudy
5:56 PM 69.1 °F 39.9 °F 35% 29.74 in 10.0 mi South 6.9 mph - N/A   Overcast
6:56 PM 70.0 °F 39.0 °F 32% 29.75 in 10.0 mi SW 9.2 mph - N/A   Overcast
7:56 PM 70.0 °F 41.0 °F 35% 29.76 in 10.0 mi South 5.8 mph - N/A   Overcast
8:56 PM 71.1 °F 41.0 °F 34% 29.76 in 10.0 mi ESE 3.5 mph - N/A   Overcast
9:56 PM 64.0 °F 41.0 °F 43% 29.75 in 10.0 mi Calm Calm - N/A   Partly Cloudy
10:56 PM 63.0 °F 39.9 °F 43% 29.76 in 10.0 mi WNW 8.1 mph - N/A   Clear
11:56 PM 64.0 °F 42.1 °F 45% 29.75 in 10.0 mi SW 10.4 mph - N/A   Clear